User: anonymous   Login
Location: Unspecified
(0.0000°N, 0.0000°E)
Time: 22:33:39
(UTC+01:00)
Language:

CZ-4 DEB - Orbit

View from above orbital plane
View from above orbital plane
View from above satellite
View from above satellite

Ground track
Ground track

The orbit data is extracted from the following two-line orbital elements,

1 29508U 06046D   14353.14005161  .00041678  00000-0  20029-2 0  7601
2 29508 097.6989 002.3205 0007033 037.1949 004.8876 15.18674794445303
Epoch (UTC): 19 December 2014 03:21:40
Eccentricity: 0.0007033
inclination: 97.6989°
perigee height: 505 km
apogee height: 514 km
right ascension of ascending node: 2.3205°
argument of perigee: 37.1949°
revolutions per day: 15.18674794
mean anomaly at epoch: 4.8876°
orbit number at epoch: 44530

The dashed part of the orbit path shows where the satellite is in the earth's shadow,  

DLR